TimeCET,TemperatureF,Dew PointF,Humidity,Sea Level PressureIn,VisibilityMPH,Wind Direction,Wind SpeedMPH,Gust SpeedMPH,PrecipitationIn,Events,Conditions,WindDirDegrees,DateUTC
12:00 AM,24.8,19.4,80,30.01,6.2,NW,5.8,-,N/A,,Scattered Clouds,310,2013-03-21 23:00:00
1:00 AM,23.0,17.6,80,30.01,6.2,NNW,2.3,-,N/A,,Scattered Clouds,330,2013-03-22 00:00:00
2:00 AM,23.0,17.6,80,30.01,6.2,WNW,1.2,-,N/A,,Mostly Cloudy,290,2013-03-22 01:00:00
3:00 AM,23.0,17.6,80,30.01,6.2,Variable,2.3,-,N/A,,Mostly Cloudy,0,2013-03-22 02:00:00
4:00 AM,23.0,15.8,74,29.98,6.2,Variable,2.3,-,N/A,,Partly Cloudy,0,2013-03-22 03:00:00
5:00 AM,19.4,15.8,86,29.98,6.2,Variable,2.3,-,N/A,,Scattered Clouds,0,2013-03-22 04:00:00
6:00 AM,23.0,17.6,80,30.01,6.2,North,3.5,-,N/A,,Mostly Cloudy,350,2013-03-22 05:00:00
7:00 AM,23.0,17.6,80,30.01,6.2,NW,5.8,-,N/A,,Mostly Cloudy,320,2013-03-22 06:00:00
7:30 AM,23.0,17.6,80,30.01,6.2,NNW,5.8,-,N/A,,Mostly Cloudy,330,2013-03-22 06:30:00
8:00 AM,24.8,17.6,74,30.01,6.2,NNW,3.5,-,N/A,,Mostly Cloudy,330,2013-03-22 07:00:00
8:30 AM,24.8,15.8,69,30.01,6.2,North,4.6,-,N/A,,Mostly Cloudy,350,2013-03-22 07:30:00
9:00 AM,24.8,17.6,74,30.01,6.2,NNW,4.6,-,N/A,,Mostly Cloudy,330,2013-03-22 08:00:00
9:30 AM,24.8,17.6,74,30.01,6.2,North,4.6,-,N/A,,Mostly Cloudy,360,2013-03-22 08:30:00
10:00 AM,26.6,17.6,69,30.01,6.2,NNW,4.6,-,N/A,,Mostly Cloudy,340,2013-03-22 09:00:00
10:30 AM,26.6,15.8,64,30.01,6.2,WNW,6.9,-,N/A,,Mostly Cloudy,300,2013-03-22 09:30:00
11:00 AM,26.6,17.6,69,30.01,6.2,North,5.8,-,N/A,,Mostly Cloudy,350,2013-03-22 10:00:00
11:30 AM,28.4,15.8,59,30.01,6.2,Variable,2.3,-,N/A,,Mostly Cloudy,0,2013-03-22 10:30:00
12:00 PM,28.4,17.6,64,30.01,6.2,NNW,4.6,-,N/A,,Mostly Cloudy,330,2013-03-22 11:00:00
12:30 PM,28.4,17.6,64,30.01,6.2,Variable,3.5,-,N/A,,Mostly Cloudy,0,2013-03-22 11:30:00
1:00 PM,28.4,17.6,64,30.01,6.2,Variable,4.6,-,N/A,,Mostly Cloudy,0,2013-03-22 12:00:00
1:30 PM,28.4,17.6,64,29.98,6.2,North,4.6,-,N/A,,Mostly Cloudy,350,2013-03-22 12:30:00
2:00 PM,28.4,17.6,64,29.98,6.2,NE,8.1,-,N/A,,Mostly Cloudy,50,2013-03-22 13:00:00
2:30 PM,28.4,17.6,64,29.98,6.2,ENE,9.2,-,N/A,,Mostly Cloudy,60,2013-03-22 13:30:00
3:00 PM,28.4,19.4,69,29.98,6.2,ENE,9.2,-,N/A,,Mostly Cloudy,70,2013-03-22 14:00:00
3:30 PM,28.4,17.6,64,29.98,6.2,NE,8.1,-,N/A,,Mostly Cloudy,50,2013-03-22 14:30:00
4:00 PM,28.4,17.6,64,29.98,6.2,ENE,8.1,-,N/A,,Mostly Cloudy,60,2013-03-22 15:00:00
4:30 PM,26.6,17.6,69,29.98,6.2,ENE,8.1,-,N/A,,Mostly Cloudy,60,2013-03-22 15:30:00
5:00 PM,26.6,17.6,69,30.01,6.2,NE,5.8,-,N/A,,Mostly Cloudy,40,2013-03-22 16:00:00
5:30 PM,26.6,17.6,69,30.01,6.2,East,11.5,-,N/A,,Scattered Clouds,80,2013-03-22 16:30:00
6:00 PM,26.6,19.4,74,29.98,6.2,ENE,8.1,-,N/A,,Mostly Cloudy,60,2013-03-22 17:00:00
6:30 PM,24.8,17.6,74,30.01,6.2,ENE,11.5,-,N/A,,Partly Cloudy,70,2013-03-22 17:30:00
7:00 PM,23.0,17.6,80,30.01,6.2,ENE,9.2,-,N/A,,Scattered Clouds,70,2013-03-22 18:00:00
7:30 PM,23.0,17.6,80,30.01,6.2,ENE,8.1,-,N/A,,Scattered Clouds,70,2013-03-22 18:30:00
8:00 PM,24.8,17.6,74,30.01,6.2,ENE,5.8,-,N/A,,Mostly Cloudy,70,2013-03-22 19:00:00
9:00 PM,24.8,19.4,80,30.01,6.2,ENE,11.5,-,N/A,,Mostly Cloudy,70,2013-03-22 20:00:00
10:00 PM,24.8,19.4,80,30.01,6.2,ENE,12.7,-,N/A,Snow,Light Snow,70,2013-03-22 21:00:00
11:00 PM,23.0,17.6,80,30.01,6.2,East,11.5,-,N/A,Snow,Light Snow,80,2013-03-22 22:00:00